Other Public Products
Issued by NWS Grand Forks, ND

Home | Current Version | Previous Version | Text Only | Print | Product List | Glossary Off
Versions: 1 2 3 4 5 6 7 8 9 10 11 12 13 14 15 16 17 18 19 20 21 22 23 24 25 26 27 28 29 30 31 32 33 34 35 36 37 38 39 40 41 42 43 44 45 46 47 48 49 50

000
FPUS83 KFGF 281231
OPUFGF
PRAIRIE TO PINES WEATHER ROUNDUP
NATIONAL WEATHER SERVICE EASTERN NORTH DAKOTA/GRAND FORKS ND
700 AM CDT FRI AUG 28 2015

 **SATELLITE DATA USED TO AUGMENT SKY COVER AT AUTOMATED STATIONS**
 *****  WEATHER ACROSS EASTERN NORTH DAKOTA  *****

CITY           SKY/WX    TMP DP  RH WIND       PRES   REMARKS
GRAND FORKS    MOCLDY    63  61  93 S8        29.85F
6HR MIN TEMP:  62; 6HR MAX TEMP:  66;

GRAND FORKS AF MOCLDY    62  61  96 SW5       29.86F
GRAND CITY NWS   N/A     63 N/A N/A S3          N/A
BUXTON         NOT AVBL
DEVILS LAKE    CLOUDY    66  57  72 S8        29.84F
6HR MIN TEMP:  63; 6HR MAX TEMP:  70;

FARGO          PTCLDY    65  63  93 S8        29.91R
6HR MIN TEMP:  65; 6HR MAX TEMP:  69;

WAHPETON ARPT  CLOUDY    61  59  94 S9        29.94S
$$

 *****  WEATHER ACROSS CENTRAL AND WESTERN NORTH DAKOTA  *****

CITY           SKY/WX    TMP DP  RH WIND       PRES   REMARKS
JAMESTOWN      PTCLDY    59  57  93 CALM      29.90R
6HR MIN TEMP:  59; 6HR MAX TEMP:  65;

BISMARCK       CLEAR     59  58  96 SE6       29.91S
6HR MIN TEMP:  59; 6HR MAX TEMP:  68;

MINOT          PTCLDY    67  58  72 SW13      29.82S
6HR MIN TEMP:  66; 6HR MAX TEMP:  73;

MINOT AFB      MOCLDY    65  64  94 W9        29.81S
6HR MIN TEMP:  63; 6HR MAX TEMP:  68;

GARRISON         N/A     62  58  86 NW3       29.88R
6HR MIN TEMP:  60; 6HR MAX TEMP:  66;

WILLISTON      PTCLDY    62  60  93 S3        29.88R
6HR MIN TEMP:  60; 6HR MAX TEMP:  67;

DICKINSON      CLEAR     58  54  86 SW3       29.91R
6HR MIN TEMP:  58; 6HR MAX TEMP:  64;

HETTINGER      PTCLDY    56  53  90 CALM      29.96S
6HR MIN TEMP:  53; 6HR MAX TEMP:  64;

$$

 *****  OTHER OBSERVATIONS NORTHEAST NORTH DAKOTA  *****

CITY           SKY/WX    TMP DP  RH WIND       PRES   REMARKS
WALHALLA       FAIR      66  66 100 MISG      29.81S
LANGDON        FAIR      63  61  94 S9        29.85R
CAVALIER       FAIR      63  61  94 S5        29.82S FOG
GRAFTON        FAIR      64  64 100 CALM      29.83S
CANDO          FAIR      59  59 100 S12       29.84F
FORT TOTTEN      N/A     64  59  83 S2        29.95S
ROLLA          FAIR      63  63 100 SW9       29.82F
RUGBY          FAIR      63  63 100 S7        29.83F
 ***** THE ABOVE OBSERVATIONS ARE NON NWS ARE NOT QUALITY
        CONTROLLED AND MAY MIS-REPORT RAIN FOR SNOW...
$$

 *****  OTHER OBSERVATIONS SOUTHEAST NORTH DAKOTA *****

CITY           SKY/WX    TMP DP  RH WIND       PRES   REMARKS
COOPERSTOWN    NOT AVBL
VALLEY CITY    FAIR      59  59 100 SW3       29.91R
OAKES          FOG       63  63 100 S9        29.92S VSB<1/4
GWINNER          N/A     63  63 100 S7        29.93S
SHEYENNE NWR     N/A     60  60  99 S5        29.95S
BUFFALO        NOT AVBL
WYNDMERE         N/A     63  63 100 S5          N/A
 ***** THE ABOVE OBSERVATIONS ARE NON NWS ARE NOT QUALITY
       CONTROLLED AND MAY MIS-REPORT RAIN FOR SNOW...
$$

  *****  WEATHER ACROSS NORTHERN MINNESOTA  *****

CITY           SKY/WX    TMP DP  RH WIND       PRES   REMARKS
FLAG ISLAND    CLOUDY    64  64 100 SE12      29.83F
WARROAD        MOCLDY    63  59  88 S9        29.84F FOG
ROSEAU         CLOUDY    64  59  82 S12       29.84F HAZE
HALLOCK        MOCLDY    64  63  94 S8        29.83S
THF RVR FALLS  PTCLDY   N/A N/A N/A S8        29.87F
HALSTAD        NOT AVBL
FOSSTON        PTCLDY    63  61  94 S8        29.93S FOG
BAUDETTE       CLOUDY    61  60  97 SE3       29.89F
6HR MIN TEMP:  59; 6HR MAX TEMP:  62;

WASKISH        CLOUDY    64  63  94 S3        29.91S FOG
CROOKSTON      PTCLDY    63  63 100 S7        29.88F FOG
$$
  *****  WEATHER ACROSS CENTRAL AND WEST MINNESOTA  *****

CITY           SKY/WX    TMP DP  RH WIND       PRES   REMARKS
BEMIDJI        FOG       64  64 100 SW5       29.93S VSB 1/4
PARK RAPIDS    FOG       64  63  96 S8        29.95S VSB 1/4
6HR MIN TEMP:  62; 6HR MAX TEMP:  65;

WADENA         CLEAR     61  61 100 S6        29.96S FOG
DETROIT LAKES  CLOUDY    64  64 100 S7        29.95S FOG
MOORHEAD       PTCLDY    63  61  94 S7        29.93R FOG
FERGUS FALLS   CLEAR     61  61 100 S9        29.95F FOG
ELBOW LAKE     FAIR      61  60  99 S8        29.97R
6HR MIN TEMP:  60; 6HR MAX TEMP:  63;

MORRIS MN      CLOUDY    64  63  94 SE5       29.97R FOG
STAPLES        PTCLDY    57  57 100 S3        29.98R FOG
WHEATON        CLOUDY    61  61 100 SE6       29.97S
$$
  *****  WEATHER ELSEWHERE ACROSS MINNESOTA  *****

CITY           SKY/WX    TMP DP  RH WIND       PRES   REMARKS
DULUTH         CLOUDY    61  58  90 SW8       29.98R
6HR MIN TEMP:  58; 6HR MAX TEMP:  61;

INTRNTL FALLS  PTCLDY    60  60 100 CALM      29.91F FOG
6HR MIN TEMP:  57; 6HR MAX TEMP:  62;

ELY            CLOUDY    61  59  94 SW5       29.96S
CLOQUET        CLOUDY    61  57  88 SW6       29.98S
BRAINERD       CLOUDY    59  59 100 S6        29.98R FOG
6HR MIN TEMP:  59; 6HR MAX TEMP:  65;

HIBBING        CLOUDY    59  58  96 SE3       29.96S FOG
6HR MIN TEMP:  50; 6HR MAX TEMP:  58;

ALEXANDRIA     MOCLDY    64  62  93 S9        30.00R
6HR MIN TEMP:  61; 6HR MAX TEMP:  64;

SAINT CLOUD    MOCLDY    58  57  97 S5        30.00R FOG
6HR MIN TEMP:  55; 6HR MAX TEMP:  61;

MINNEAPOLIS    CLOUDY    64  60  87 SE5       30.01R
6HR MIN TEMP:  63; 6HR MAX TEMP:  66;

$$

  *****  WEATHER ACROSS SOUTH DAKOTA  *****

CITY           SKY/WX    TMP DP  RH WIND       PRES   REMARKS
SIOUX FALLS    LGT RAIN  64  62  93 NE8       29.92R FOG
6HR MIN TEMP:  64; 6HR MAX TEMP:  66; 6HR PCP:  0.01;

BROOKINGS      CLOUDY    64  61  88 E7        29.95F
WATERTOWN      CLOUDY    65  63  93 E3        29.95S
6HR MIN TEMP:  65; 6HR MAX TEMP:  67;

HURON          CLOUDY    65  64  97 E5        29.92R
6HR MIN TEMP:  65; 6HR MAX TEMP:  67; 6HR PCP: TRACE;

SISSETON         N/A     64  64 100 S6        29.94S
ABERDEEN       FOG       60  59  96 S5        29.93F VSB 1/4
6HR MIN TEMP:  58; 6HR MAX TEMP:  63;

MITCHELL       CLOUDY    66  64  93 NE6       29.92R
PIERRE         CLOUDY    67  66  97 E3        29.93R
6HR MIN TEMP:  67; 6HR MAX TEMP:  68;

MOBRIDGE       FOG       66  66 100 S5        29.91S VSB 1/2
RAPID CITY     CLEAR     57  52  83 NW6       30.00R
6HR MIN TEMP:  55; 6HR MAX TEMP:  62;

$$

  *****  SOME WEATHER IN NEARBY STATES *****

CITY           SKY/WX    TMP DP  RH WIND       PRES   REMARKS
GLASGOW MT     CLEAR     59  52  77 W3        29.89S
6HR MIN TEMP:  58; 6HR MAX TEMP:  68;

GREAT FALLS MT CLOUDY    60  39  45 SW14      30.03F HAZE
6HR MIN TEMP:  57; 6HR MAX TEMP:  67;

CHEYENNE WY    CLOUDY    57  48  72 W10       30.23R
6HR MIN TEMP:  55; 6HR MAX TEMP:  62; 6HR PCP:  0.07;

SCOTTSBLUFF NE CLEAR     57  53  86 W8        30.08R
6HR MIN TEMP:  56; 6HR MAX TEMP:  62;

OMAHA NE       CLOUDY    69  67  93 SE10      29.83R
6HR MIN TEMP:  68; 6HR MAX TEMP:  70; 6HR PCP:  0.85;

DES MOINES IA  LGT RAIN  64  60  87 E12       29.98F
6HR MIN TEMP:  64; 6HR MAX TEMP:  67; 6HR PCP:  0.10;

DAVENPORT IA   CLOUDY    59  57  93 CALM      30.12R
6HR MIN TEMP:  59; 6HR MAX TEMP:  63;

CHICAGO IL     MOCLDY    61  56  83 CALM      30.13R
6HR MIN TEMP:  56; 6HR MAX TEMP:  61;

EAU CLAIRE WI  CLOUDY    61  58  90 S3        30.03R
6HR MIN TEMP:  60; 6HR MAX TEMP:  64;

LA CROSSE WI   CLOUDY    65  60  84 S10       30.05R
6HR MIN TEMP:  64; 6HR MAX TEMP:  67;

$$

  *****  SOME NATIONAL WEATHER *****

CITY           SKY/WX    TMP DP  RH WIND       PRES   REMARKS
LA GUARDIA NY  MOSUNNY   68  56  65 NW7       30.17R



USA.gov is the U.S. government's official web portal to all federal, state and local government web resources and services.